{"data":{"norad_id":69345,"epoch":"2026-09-18T19:42:46.564128Z","epoch_age_seconds":173967,"freshness":"STALE","line1":"1 69345U 26122S   26261.82137227  .00011360  00000+0  35366-3 0  9995","line2":"2 69345  97.2836 290.4898 0001260  96.3358 263.8029 15.33445238 16541","mean_motion":15.33445238,"eccentricity":0.000126,"inclination_deg":97.2836,"raan_deg":290.4898,"arg_perigee_deg":96.3358,"mean_anomaly_deg":263.8029,"bstar":0.00035366,"rev_number":1654,"period_min":93.906190082022,"perigee_km":464.68016274491,"apogee_km":466.40476997043,"semimajor_km":6843.6794663577,"source":"CELESTRAK","updated_at":"2026-09-20T09:00:44.162328Z"}}